Location: Plzen
(49.7500°N, 13.3670°E)
Time: 05:07:08
(UTC+02:00)

ISS - Pass Details

Date: 23 May 2021
Orbit: 417 x 422 km, 51.6° (Epoch: 13 June)

Event Time Altitude Azimuth Distance (km) Brightness Sun altitude
Rises 23:46:35 0° 288° (WNW) 2,369 0.6 -17.5°
Reaches altitude 10° 23:48:42 10° 285° (WNW) 1,504 -0.5 -17.6°
Maximum altitude 23:52:02 62° 204° (SSW) 479 -3.8 -17.7°
Enters shadow 23:52:20 58° 174° (S) 495 -3.8 -17.8°
